Regional Weather Roundup
Issued by NWS

Home | Current Version | Previous Version | Text Only | Print | Product List | Glossary Off
Versions: 1 2 3 4 5 6 7 8 9 10 11 12 13 14 15 16 17 18 19 20 21 22 23 24 25 26 27 28

000
ASUS45 KCYS 271910
RWRWY

WYOMING REGIONAL WEATHER ROUNDUP
NATIONAL WEATHER SERVICE CHEYENNE WY
100 PM MDT SAT AUG 27 2016

NOTE:  "FAIR" INDICATES FEW OR NO CLOUDS BELOW 12,000 FEET
WITH NO SIGNIFICANT WEATHER AND/OR OBSTRUCTIONS TO VISIBILITY.

WYZ001-272000-
YELLOWSTONE NATIONAL PARK

CITY           SKY/WX    TMP DP  RH WIND       PRES   REMARKS
LK YELLOWSTONE   N/A     64  28  25 SW8G17    30.20S
W YELLOWSTONE  NOT AVBL

$$
WYZ002>013-054>058-071-098>099-272000-
NORTHERN WYOMING

CITY           SKY/WX    TMP DP  RH WIND       PRES   REMARKS
JACKSON        SUNNY     70  27  19 W10       30.13F
CODY           FAIR      70  34  26 S3        29.99F
GREYBULL       FAIR      78  30  17 CALM      29.93F
WORLAND        FAIR      80  35  19 VRB5      29.94F
SHERIDAN       FAIR      82  38  20 NE5       29.91F
BUFFALO        FAIR      79  33  19 VRB3      29.96F
GILLETTE       FAIR      81  35  19 W8        29.94F
HULETT         FAIR      75  50  41 S13       29.97F
NEWCASTLE      FAIR      72  46  40 S8        30.01F

$$
WYZ014>020-022>026-101>103-272000-
CENTRAL WYOMING

CITY           SKY/WX    TMP DP  RH WIND       PRES   REMARKS
BIG PINEY      FAIR      68  28  22 VRB7      30.19F
PINEDALE       FAIR      68  25  19 S6        30.20F
DUBOIS         FAIR      68  18  14 NW16G24   30.13F
LANDER         FAIR      75  35  23 MISG      30.04F
RIVERTON       FAIR      73  34  23 E7        30.06F
CASPER         FAIR      77  34  21 W20G30    30.05F
DOUGLAS        FAIR      81  33  17 W16G25    30.04F

$$
WYZ021-027>030-104>119-272000-
SOUTHERN WYOMING

CITY           SKY/WX    TMP DP  RH WIND       PRES   REMARKS
EVANSTON       FAIR      72  22  15 W14G26    30.22F
FORT BRIDGER   FAIR      76  21  13 W16G23    30.23F
ROCK SPRINGS   FAIR      72  24  16 W14G24    30.19F
DIXON          FAIR      73  32  21 W12G17    30.23F
RAWLINS        FAIR      74  27  17 W20G32    30.18F
SARATOGA       FAIR      72  28  20 W12G24    30.22F
LARAMIE        FAIR      72  29  20 SW12G25   30.19F
CHEYENNE       PTSUNNY   75  32  20 W10G21    30.13F
TORRINGTON     FAIR      80  38  22 CALM      30.00F
PINE BLUFFS    FAIR      79  32  18 W3        30.10F

$$




USA.gov is the U.S. government's official web portal to all federal, state and local government web resources and services.